User: anonymous   Login
Location: Pella
(41.4080°N, 92.9160°W)
Time: 10:01:20
(UTC-05:00)
Language:

Iridium 91 - Orbit

View from above orbital plane
View from above orbital plane
View from above satellite
View from above satellite

Ground track
Ground track

The orbit data is extracted from the following two-line orbital elements,

1 27372U 02005A   16212.53607147  .00000031  00000-0  40784-5 0  9995
2 27372  86.3947  62.2832 0002058  91.3555 330.0306 14.34217361765528
Epoch (UTC): 30 July 2016 12:51:56
Eccentricity: 0.0002058
inclination: 86.3947°
perigee height: 776 km
apogee height: 779 km
right ascension of ascending node: 62.2832°
argument of perigee: 91.3555°
revolutions per day: 14.34217361
mean anomaly at epoch: 330.0306°
orbit number at epoch: 76552

The dashed part of the orbit path shows where the satellite is in the earth's shadow,  

DLR